Location: Newark
(30.0333°N, 31.2167°E)
Time: 11:37:23
(UTC+00:00)

Tiros 1 - Pass Details

Date: 25 January 2020
Orbit: 631 x 664 km, 48.4° (Epoch: 22 February)

Event Time Altitude Azimuth Distance (km) Brightness Sun altitude
Rises 16:09:35 0° 320° (NW) 2,977 10.9 -9.8°
Reaches altitude 10° 16:12:11 10° 331° (NNW) 2,068 9.9 -10.4°
Maximum altitude 16:16:22 30° 33° (NNE) 1,185 8.1 -11.2°
Enters shadow 16:19:22 16° 85° (E) 1,695 8.7 -11.9°
Drops below altitude 10° 16:20:35 10° 94° (E) 2,073 - -12.1°
Sets 16:23:10 0° 105° (ESE) 2,985 - -12.7°
